RH
10 11 11 10 11 13 13 10 9 9 9 9 9 8 8 8 8 7 7 6 6 5 5 6 4 5 9 10 11 12 14 15 14 17 21 23 23 22 22 21 21 20 20 20 21 22 23 24 23 21 22 23 25 27 30 33 35 37 39 37 34 40 42 40 42 42 40 42 47 50 49 51 53 52 51 49 48 51 53 54 56 57 55 55 56 58 60 63
10 10 10 11 11 13 14 12 10 9 9 9 9 9 9 8 8 7 7 6 5 5 5 5 3 3 7 9 10 11 15 17 15 18 22 22 22 22 22 22 21 20 20 21 21 22 23 23 22 21 22 25 27 28 31 33 35 38 41 37 36 41 39 36 38 40 37 38 43 45 45 47 50 51 51 51 51 50 53 53 54 57 57 56 57 60 62 61
12 11 10 10 10 12 14 14 12 9 9 9 9 9 9 8 8 7 7 6 5 5 4 4 2 2 6 9 11 12 16 18 16 20 22 21 22 21 21 22 21 21 21 21 21 21 23 22 21 21 22 25 27 30 32 33 35 37 36 36 38 38 36 34 35 36 35 35 40 42 42 44 44 47 50 51 52 52 53 54 53 57 58 58 60 62 64 66
12 12 11 10 10 11 13 14 13 11 9 9 9 9 9 8 8 7 6 6 5 4 3 3 2 3 5 8 11 12 16 19 18 20 20 20 21 21 21 21 20 21 20 20 20 21 23 23 22 21 22 24 25 30 34 34 36 35 34 36 35 35 35 33 32 34 34 33 37 41 43 42 41 44 47 49 52 53 53 52 51 55 58 58 60 61 63 67
10 12 11 10 10 10 11 14 14 13 10 9 9 9 9 8 8 7 6 5 5 4 3 3 2 2 4 7 10 12 16 20 20 21 20 19 21 21 21 20 21 20 19 19 19 21 23 23 23 22 22 23 25 29 32 33 35 34 34 34 33 35 35 32 31 33 33 33 36 41 44 43 41 43 46 48 51 52 49 49 50 52 56 57 57 59 61 65
9 10 11 11 10 9 10 12 14 14 12 10 9 9 9 9 8 7 6 5 4 3 3 3 2 2 3 6 10 12 16 19 21 21 20 20 20 20 20 20 20 19 19 19 19 21 22 22 22 22 21 22 25 27 29 31 33 34 34 32 32 34 35 32 31 32 33 33 36 42 43 43 43 42 45 47 48 47 45 47 50 52 56 58 58 59 60 62
9 9 10 10 10 9 9 10 12 14 13 11 10 10 9 9 8 7 6 5 4 4 3 3 2 2 3 6 9 12 15 18 20 21 20 20 20 20 20 19 19 19 19 19 19 20 21 21 21 21 21 22 23 24 27 30 31 33 34 34 33 34 35 32 30 32 33 33 36 40 42 43 44 42 44 46 46 46 45 46 48 52 56 59 60 61 60 61
8 9 9 9 10 9 9 9 11 12 13 13 11 10 10 9 8 7 6 5 5 4 3 3 3 2 3 5 9 12 14 17 19 20 20 20 20 18 19 19 18 19 19 19 19 20 21 22 20 19 21 21 22 23 26 29 30 31 32 33 33 34 36 33 31 32 33 34 37 40 41 43 43 42 43 44 45 46 45 46 48 51 54 56 58 60 61 61
7 8 9 9 9 9 9 9 9 11 12 13 12 11 10 9 9 8 6 5 5 4 3 3 2 2 3 5 7 12 15 17 18 18 17 19 19 18 19 19 19 19 18 18 19 20 21 23 21 19 20 19 20 20 23 27 28 28 29 30 31 33 35 34 32 33 34 36 38 40 40 41 42 42 43 43 44 46 46 45 46 50 52 54 55 57 59 60
7 7 8 8 9 9 8 8 8 10 11 12 13 12 11 10 9 8 7 6 5 5 4 3 3 2 3 4 7 12 17 17 18 17 16 18 19 18 18 18 18 19 18 17 18 19 20 22 22 20 20 19 19 18 21 23 22 24 27 29 30 31 34 33 32 33 34 35 38 40 40 40 41 42 44 44 44 46 46 46 46 48 50 52 53 55 57 59
9 7 7 7 8 9 8 8 8 9 10 11 12 12 11 10 10 9 7 7 6 5 4 3 3 2 3 5 7 12 16 17 18 17 16 19 19 17 17 18 18 18 18 17 17 19 20 22 22 21 21 20 20 19 19 21 21 24 27 29 31 31 32 32 32 33 32 34 36 39 40 39 41 42 42 45 46 46 46 48 48 48 49 50 52 55 56 58
9 8 7 7 8 8 8 8 7 8 9 11 12 12 12 11 10 9 8 7 6 5 4 3 3 2 3 5 7 11 15 16 17 17 16 19 19 17 17 17 18 18 17 16 17 18 21 22 22 23 22 21 22 21 19 19 22 25 27 31 33 33 33 32 32 33 31 33 34 35 39 41 43 43 42 45 47 47 47 48 49 49 50 51 53 55 55 56
9 8 7 7 7 8 8 8 7 8 9 10 11 12 12 11 11 10 8 8 6 5 4 3 3 2 3 6 8 10 12 14 16 17 16 18 19 18 17 17 18 17 17 16 16 18 20 21 22 23 22 22 23 22 20 21 24 26 27 32 35 34 36 33 33 34 30 32 33 32 37 42 45 43 42 47 48 47 47 48 50 51 52 53 54 55 55 53
10 9 8 7 7 7 8 8 7 7 8 9 10 11 11 12 11 10 9 8 7 6 5 3 3 3 4 7 8 9 11 12 15 16 16 17 18 18 18 17 17 17 17 16 16 17 19 20 21 21 22 24 24 22 22 23 25 28 28 32 35 34 37 36 33 35 31 32 32 31 36 40 42 40 40 45 47 48 48 49 51 51 52 54 54 55 54 52
11 9 8 7 6 7 7 8 8 7 8 8 9 10 11 11 12 11 9 8 7 6 5 4 3 3 5 7 8 8 10 11 13 15 15 16 17 17 17 16 16 16 16 16 15 16 17 20 20 21 23 25 23 22 23 23 23 28 30 32 33 34 38 36 33 35 34 33 32 31 37 39 38 37 39 43 46 47 48 49 51 52 52 52 54 55 54 53
11 10 9 7 6 7 7 7 8 7 7 7 8 9 10 11 12 12 10 8 7 6 5 4 3 4 6 7 7 9 10 12 12 13 15 15 16 17 17 16 16 15 15 15 14 14 16 19 19 21 24 23 23 22 22 24 23 26 30 32 31 32 36 35 32 34 34 34 33 32 36 37 35 36 38 41 45 47 48 49 51 52 51 51 53 54 54 53
11 10 9 8 7 6 7 7 7 7 7 7 7 8 9 10 12 12 11 9 7 6 6 5 4 4 7 8 8 8 10 12 12 11 13 14 15 16 16 15 14 14 14 14 13 14 16 18 19 20 22 23 24 23 22 24 23 23 27 28 29 30 33 34 33 32 32 33 34 34 34 34 35 37 39 41 44 47 48 48 51 53 52 50 50 52 52 52
12 10 9 8 7 7 6 6 7 7 7 7 7 7 8 10 12 12 12 9 8 7 6 5 5 6 7 7 8 9 10 12 11 11 10 12 14 15 15 14 13 12 13 13 12 14 15 16 18 20 22 22 23 23 23 24 22 20 22 23 25 27 29 33 32 30 32 33 33 33 33 35 38 37 38 40 42 46 47 48 49 52 53 51 49 50 50 50
12 11 9 8 7 7 6 6 6 6 6 7 7 7 8 9 11 12 12 10 8 7 6 5 5 6 8 7 8 9 10 10 10 9 9 10 12 13 14 13 11 11 11 12 13 14 14 16 19 20 20 20 21 22 22 23 22 19 20 23 24 25 26 30 31 29 32 34 33 33 33 36 38 37 38 39 40 44 47 48 48 51 54 51 48 48 49 50
12 11 9 8 7 7 6 6 6 6 6 6 6 7 8 8 9 11 12 11 9 7 7 6 6 7 8 8 8 8 9 9 8 8 9 10 11 11 12 12 11 10 10 12 14 13 14 17 19 18 18 18 18 20 21 22 20 18 19 21 23 24 24 26 28 28 30 32 33 33 34 36 38 38 38 36 37 42 45 47 48 50 52 49 46 45 46 48
12 11 9 8 7 6 6 6 6 6 6 6 6 7 7 8 9 12 13 12 9 7 7 6 6 8 8 9 9 8 8 8 8 9 10 11 11 11 12 12 12 11 12 13 14 14 15 17 18 17 16 17 18 18 18 18 17 16 16 18 20 22 23 23 25 30 31 28 31 35 35 36 37 40 40 36 37 40 44 47 48 50 52 49 45 44 45 45
12 11 9 8 7 6 6 6 6 5 5 5 6 7 8 9 11 12 13 13 11 9 7 6 7 9 9 9 10 8 8 8 9 11 12 12 11 11 12 12 13 13 14 13 14 17 17 16 16 16 15 16 17 16 15 15 13 12 13 14 17 19 22 21 23 33 34 28 32 36 35 35 38 40 39 38 40 40 42 46 47 49 51 49 46 44 44 45
12 11 9 8 7 6 6 6 6 5 5 6 6 6 9 11 11 12 13 13 13 10 8 7 7 9 9 9 9 9 9 9 10 11 12 11 11 12 12 12 13 14 14 13 14 17 17 16 16 15 15 15 16 15 12 11 10 9 11 13 15 16 19 20 21 30 33 30 33 37 36 36 40 42 39 38 41 41 42 45 46 48 50 49 47 45 44 45
11 10 8 8 7 7 6 6 5 5 5 6 6 6 9 12 11 12 12 13 14 12 9 8 8 9 9 9 9 10 10 9 10 11 11 12 11 12 12 12 13 13 13 14 15 17 16 16 15 14 14 14 15 14 11 10 9 8 11 14 14 15 19 21 22 28 32 31 32 34 35 36 39 42 40 40 41 41 44 46 46 48 50 50 47 45 44 45
10 10 9 8 7 7 6 5 5 6 5 6 6 6 8 11 11 11 12 12 13 13 11 10 11 10 9 9 9 10 10 9 10 11 11 11 11 12 12 12 12 13 14 14 15 16 15 15 13 13 14 13 13 12 10 10 9 10 12 13 15 18 21 23 23 27 31 30 30 32 34 36 41 41 41 45 46 45 46 48 49 49 50 49 47 45 45 45
9 9 8 8 8 7 6 5 5 5 5 6 6 7 7 9 10 10 12 13 13 13 12 12 12 11 9 9 8 9 9 9 9 10 11 11 11 11 12 11 11 12 14 14 15 16 15 14 13 13 12 11 10 10 9 10 10 11 12 13 18 22 23 23 21 23 28 28 28 31 31 36 40 38 40 49 50 48 48 49 51 51 49 48 46 46 46 47
9 9 8 8 7 6 5 5 5 5 6 6 7 8 9 9 10 10 11 11 10 11 12 12 12 11 10 9 8 9 9 8 8 9 10 10 11 11 12 12 11 11 12 13 14 15 14 13 13 12 11 10 9 9 9 10 11 11 11 15 21 21 20 20 20 22 26 26 28 33 32 35 39 38 42 49 49 48 48 49 51 52 50 46 46 48 49 50
9 9 9 8 7 6 6 6 5 6 7 9 10 11 11 11 10 10 11 9 9 10 11 11 11 11 10 10 9 9 9 9 9 9 9 10 11 11 11 12 11 11 11 12 14 15 14 13 12 12 10 9 9 9 10 10 10 11 13 17 19 18 19 20 21 24 26 25 29 34 33 34 40 43 46 48 47 47 48 49 50 52 51 47 46 50 52 53
9 9 8 7 7 7 6 6 6 7 10 13 12 12 12 10 9 12 13 12 10 10 10 10 10 10 10 10 10 9 10 10 9 9 9 10 11 11 11 11 12 12 11 11 14 15 13 12 11 10 10 10 9 9 10 9 10 11 12 15 16 16 19 21 24 27 27 28 31 33 33 35 40 44 45 46 47 48 49 50 50 51 52 49 48 52 54 55
9 8 7 7 7 7 7 6 6 9 14 14 12 13 12 10 14 15 13 13 12 9 9 10 9 9 9 10 11 10 10 10 9 10 10 10 11 11 11 11 11 13 12 12 13 14 13 11 11 10 9 10 9 10 11 11 12 13 13 14 15 17 19 24 30 31 29 33 34 33 35 36 39 43 45 45 48 49 49 49 49 52 54 52 52 55 56 56
8 8 8 8 8 7 7 7 8 12 14 13 12 13 11 12 18 19 14 13 12 10 9 9 9 9 10 10 11 11 11 10 10 11 10 10 11 11 11 11 11 13 15 14 13 14 12 11 11 10 9 9 9 11 13 14 14 14 16 16 16 18 21 25 32 33 31 34 35 36 37 36 37 41 43 46 48 49 49 48 50 55 56 54 54 56 57 57
8 8 9 9 8 8 9 10 13 14 13 12 12 13 14 14 16 17 16 14 11 10 9 8 8 10 10 11 12 12 11 10 10 10 11 10 11 11 12 14 13 13 15 15 14 13 12 10 11 10 10 11 11 12 15 16 16 15 18 20 20 24 25 25 29 32 33 35 35 37 37 36 39 40 42 47 48 48 49 48 51 56 57 56 56 57 58 58
8 9 9 9 9 10 13 15 15 13 13 13 12 13 17 16 14 16 17 14 11 10 9 8 9 10 11 11 12 12 11 11 10 10 10 10 12 11 12 14 13 11 13 12 12 13 12 11 12 12 12 12 12 14 15 16 16 16 19 21 21 26 27 25 28 33 37 38 37 37 36 36 40 41 43 48 49 48 48 49 53 57 57 56 57 57 58 58
9 10 10 11 12 14 16 16 14 14 13 12 13 15 16 17 18 20 19 15 12 10 9 10 11 11 11 12 12 12 11 11 10 10 10 10 11 11 11 13 12 11 12 11 11 13 12 13 13 13 13 14 14 15 15 16 17 17 18 18 18 22 22 21 27 35 39 39 38 37 36 38 42 42 43 47 49 50 50 51 54 56 56 57 57 59 58 58
9 10 11 13 13 14 15 14 14 14 12 12 16 18 19 22 24 25 22 17 13 10 10 12 12 11 12 13 13 12 11 11 11 10 10 10 11 11 12 12 11 11 12 12 13 13 13 16 16 15 15 15 16 15 15 17 18 18 19 19 19 21 21 23 29 35 38 38 38 39 39 41 42 42 44 48 51 52 52 52 54 56 58 59 59 60 59 58
9 10 12 13 13 13 13 14 14 14 12 14 18 22 26 28 28 27 25 19 15 12 11 12 12 12 12 13 12 11 10 10 10 11 10 10 10 10 11 11 10 11 11 12 14 13 14 18 19 18 18 16 17 18 18 18 19 21 21 21 22 22 24 29 33 36 37 37 38 40 44 46 44 43 46 50 53 54 55 57 58 59 60 60 60 60 59 59
9 11 12 13 12 11 12 13 12 12 13 18 26 31 33 31 28 28 27 23 19 14 12 12 12 12 12 12 12 11 10 10 10 10 10 9 9 9 9 9 9 10 11 11 13 12 14 18 19 18 19 19 19 19 20 19 20 22 22 23 24 25 28 32 34 39 40 39 41 43 47 50 49 46 47 51 54 56 59 62 62 62 61 60 62 61 59 60
10 12 13 14 13 11 11 12 13 16 21 27 35 38 37 32 28 27 25 23 20 14 11 12 11 11 12 12 13 12 10 10 10 10 10 9 9 9 8 8 8 9 9 9 11 12 13 17 20 19 19 20 22 21 22 22 22 22 22 23 24 27 29 30 34 38 40 45 50 48 49 52 50 49 49 50 53 56 60 63 63 64 63 61 62 61 60 61
12 13 14 15 15 13 15 18 22 26 30 34 37 37 34 32 28 24 22 20 18 13 10 11 10 10 12 12 12 11 10 11 11 11 11 10 10 10 9 9 9 8 9 8 11 13 14 16 20 22 21 21 25 26 26 27 27 25 25 25 26 29 30 30 33 37 42 53 56 48 47 49 46 47 47 48 52 56 59 62 65 65 63 62 62 61 61 60
11 13 16 18 19 22 24 27 30 32 32 34 36 34 30 27 23 19 17 16 15 13 10 11 11 10 11 12 12 12 11 12 11 11 12 11 12 13 13 12 12 12 10 9 12 15 17 18 21 25 25 23 26 28 28 29 29 29 29 28 28 28 28 28 33 36 44 56 58 51 49 46 42 44 44 45 53 57 60 64 66 64 63 63 62 61 60 59
13 20 25 27 29 30 31 32 33 32 31 32 32 29 26 23 20 18 16 14 15 14 12 12 12 12 12 12 13 12 12 12 11 11 12 12 14 16 15 13 14 15 13 13 16 17 18 21 24 27 27 26 28 29 28 28 28 29 30 29 29 29 28 30 33 35 40 49 53 53 50 43 43 47 46 47 54 58 61 64 65 64 64 63 62 60 59 58
25 32 35 35 35 32 30 32 33 31 31 30 26 24 24 24 22 20 17 15 17 17 14 14 15 14 13 14 14 13 14 14 12 12 13 13 15 17 17 16 15 16 17 18 20 20 22 26 27 27 28 28 28 28 28 28 27 28 29 29 30 30 31 33 34 35 37 41 45 48 46 43 46 53 52 53 57 60 63 64 64 65 65 62 60 59 58 56
33 36 37 36 34 30 28 30 30 29 30 28 24 24 25 25 24 21 18 17 18 17 16 17 17 15 14 14 14 13 15 15 14 14 15 14 16 18 18 18 18 18 19 20 21 22 24 27 28 30 35 35 30 29 29 28 27 27 27 28 28 28 30 33 35 37 37 38 40 41 42 45 51 56 56 57 61 65 66 66 65 64 63 61 59 58 56 54
36 38 38 35 32 30 29 28 27 29 32 30 27 26 25 24 23 22 20 18 17 17 19 20 18 17 17 17 16 15 15 16 15 15 15 16 18 19 19 19 19 19 19 20 22 23 25 30 32 32 35 35 33 33 31 29 29 28 29 30 29 29 31 33 36 37 37 38 40 39 42 48 53 57 60 63 67 71 71 70 67 63 62 61 58 57 55 53
41 42 38 34 33 32 31 30 29 31 35 33 29 28 27 26 24 23 21 20 19 20 22 23 21 20 20 19 19 18 17 17 18 17 17 17 17 18 19 20 20 22 23 23 23 23 27 33 35 34 35 35 36 37 33 31 32 32 33 35 35 33 32 34 37 37 37 40 41 40 44 51 55 60 65 69 72 75 75 71 66 63 62 61 58 57 57 57
42 43 40 36 36 35 34 34 34 35 36 34 31 29 28 28 25 24 24 23 23 23 23 23 23 22 21 20 20 20 20 19 20 20 20 20 19 19 19 20 21 24 26 24 22 26 31 34 36 40 38 36 38 38 33 31 33 35 36 38 41 40 35 34 35 35 38 42 42 44 48 54 57 61 67 73 76 77 74 70 66 65 64 62 62 61 60 59
41 43 42 39 38 39 39 37 36 36 35 32 31 30 28 28 27 26 27 27 27 27 25 24 24 23 22 22 22 23 23 22 21 22 22 22 23 22 20 21 22 22 24 23 22 28 32 30 32 37 33 30 34 35 32 32 33 35 37 37 39 42 39 37 36 35 37 37 39 45 51 55 58 61 68 76 76 74 72 70 68 69 68 68 66 65 63 60
42 42 42 41 42 44 42 37 36 36 34 31 32 31 28 28 28 27 27 29 29 29 29 27 27 26 25 25 25 25 26 27 24 24 25 24 24 24 23 23 23 23 24 24 24 29 32 30 29 30 29 30 33 32 32 34 34 35 38 38 39 41 41 43 44 44 41 37 39 46 51 55 59 62 67 71 72 73 74 75 74 74 74 72 69 66 64 61
44 45 44 44 44 43 40 36 35 34 33 33 34 33 28 27 27 26 28 30 29 29 30 30 29 28 27 28 29 28 28 28 27 27 27 26 26 27 26 25 24 23 24 26 27 28 31 31 31 31 32 32 33 33 34 35 36 38 40 41 43 44 44 45 45 46 46 45 47 49 50 53 58 61 64 66 70 74 76 76 76 75 74 74 72 71 67 62
46 48 48 45 44 42 39 38 37 35 35 34 33 31 28 26 26 26 27 29 31 29 29 30 31 30 29 29 30 30 30 31 31 31 31 30 30 29 28 28 27 26 27 28 29 28 28 32 35 36 34 33 34 35 36 36 37 41 43 43 44 45 45 45 45 46 47 46 47 48 49 53 56 58 61 62 66 70 71 73 74 71 71 73 73 72 69 64
49 48 47 47 46 43 40 39 38 37 36 34 31 30 29 27 25 25 25 26 28 29 28 29 31 32 31 30 29 30 32 33 33 32 32 32 31 30 29 29 28 28 29 28 28 29 30 32 35 36 35 35 33 33 36 37 36 39 43 44 45 46 46 45 45 46 47 47 48 50 51 53 54 55 58 61 64 66 69 72 72 69 69 69 68 68 67 67
52 49 46 48 48 43 39 38 37 35 33 32 32 31 29 26 24 24 24 24 25 26 27 27 29 30 31 31 30 30 30 31 31 32 32 32 31 30 30 30 29 29 30 30 30 32 33 33 32 33 35 33 31 31 35 37 38 44 47 45 46 47 46 46 45 45 48 52 54 54 54 53 54 57 62 66 65 64 65 66 66 65 65 65 66 67 69 70